STARLINK-5363, 55497

Orbit data source: Space-Track

STARLINK-5363, 55497 is a payload satellite owned by SpaceX/Seattle (US) in LEO that was launched on Thu, 02 Feb 2023 UTC via an FALCON 9 launch vehicle from the Air Force Eastern Test Range (AFETR). Payload-class satellites include a variety of spacecraft equipped with specific instruments for various scientific and technological missions. These include communications satellites like Starlink; space stations such as the ISS; scientific satellites like the Hubble; Earth observation satellites from companies like Planet Labs, Umbra, and HawkEye 360; GPS; miniature CubeSats for education and research; and military/defense satellites.

Loading next visibility...
Identifier
55497, 2023-015BA
Orbit
LEO
Country
Flag of USUS
Related business
Manufacturer
SpaceX/Seattle
Mission
Operational Commercial Communications
Bus & Motor
STARLINK, Unknown motor
Mass
305 kg wet, ~290 kg dry
Launch date (UTC)
2023-02-02 (3 years ago)
Launch vehicle
FALCON 9
Launch site
Air Force Eastern Test Range (AFETR)
Object type
Payload
Rocket body
Debris
Shape & HBR
Box + 1 Pan, 10.1 m
Radar Cross Section
13.562 m², Large (>1 m²)

Expand to show TLE details & history
Last TLE update: 1 day ago

TLE from 1 day ago
0 STARLINK-5363
1 55497U 23015BA  26034.82574908 -.00002630  00000-0 -17976-3 0  9995
2 55497  43.0027 162.6633 0001242 255.2155 104.8550 15.02526801165510
Epoch: 2026-02-03T19:49Z
TLE epoch observation values (Epoch: 2026-02-03T19:49:04.720Z)
Latitude
-0°
Longitude
91.39251°
Altitude
559.107 km
Speed
7.584 km/s
True Right ascension
10h 50m 39s
True Declination
0° 00' 00"
Sunlit
Object was in full shadow at epoch
Visualization orbit readout
Latitude
Unknown
Longitude
Unknown
Altitude
Unknown
Speed
Unknown
Apparent Right ascension
Unknown
Apparent Declination
Unknown
Sunlit
N/A
Visualization observer readout
Local Sidereal Time
06:09:20
Azimuth
Unknown
Elevation
Unknown
Doppler factor
Unknown
Orbital elements
Apogee altitude
561.893 km
Perigee altitude
560.169 km
Semi-major axis
6,939.168 km
Eccentricity
0.00012
Inclination
43.0027°
RAAN
162.6633°
Arg. of periapsis
255.2155°
True anomaly
104.86876°
Mean anomaly
104.855°
Eccentric anomaly
104.86188°
Mean motion
3.75476 °/min
Orbital period
95.88 mins
BSTAR
-0.00017976
Loading maneuver chart data...
Computing Atmospheric mass density...
Loading historical data...
Loading historical data...
Loading historical data...
Loading historical data...
Loading historical data...
Loading historical data...
Loading historical data...

Documentation

Showing up to 5 results
|